Regional Weather Roundup
Issued by NWS Northern Indiana

Home | Current Version | Previous Version | Text Only | Print | Product List | Glossary On
Versions: 1 2 3 4 5 6 7 8 9 10 11 12 13 14 15 16 17 18 19 20 21 22 23 24 25 26 27 28 29 30 31 32 33 34 35 36 37 38 39 40 41 42 43 44 45 46 47 48 49 50
000
ASUS43 KIWX 080710
RWRIWX

KIWX WEATHER ROUNDUP
NATIONAL WEATHER SERVICE NORTHERN INDIANA
200 AM EST THU DEC 08 2016

NOTE: "FAIR" INDICATES FEW OR NO CLOUDS BELOW 12,000 FEET WITH NO
SIGNIFICANT WEATHER AND/OR OBSTRUCTIONS TO VISIBILITY.

* THESE STATIONS ARE NOT UNDER NWS QUALITY CONTROL. THEY ALSO MAY NOT
  REPORT WEATHER SUCH AS PRECIPITATION OR FOG.

INZ001>027-080800-
NORTHERN INDIANA

CITY           SKY/WX    TMP DP  RH WIND       PRES   REMARKS
GARY*          CLOUDY    26  16  66 W15G24    30.17S WCI  14
VALPARAISO     CLOUDY    24  15  68 W20       30.16S WCI  10
MICHIGAN CITY* CLOUDY    27  18  69 W13G24    30.15S WCI  16
LAPORTE*       FLURRIES  23  15  71 W15       30.15S WCI  10
KNOX*          CLOUDY    25   0  33 W13G20    30.17S WCI  13
SOUTH BEND     CLOUDY    22  17  81 SW13      30.13S WCI  10
GOSHEN         CLOUDY    25  16  68 W15       30.12S WCI  13
MONTICELLO*    CLOUDY    24  12  61 W12G24    30.19S WCI  13
LOGANSPORT*    CLOUDY    25  18  74 W16       30.20R WCI  12
ROCHESTER*     MOCLDY    27  19  74 W15G25    30.17R WCI  15
WARSAW*        CLOUDY    23  14  68 W16G24    30.14R WCI  10
ANGOLA*        CLOUDY    25  19  80 W12       30.07S WCI  14
FORT WAYNE     MOCLDY    26  17  68 W16       30.13S WCI  14
HUNTINGTON*    CLOUDY    25  16  70 W12G17    30.14F WCI  14
PERU/GRISSOM   CLOUDY    25  18  73 W18       30.15S WCI  12
MARION*        MOCLDY    24  18  77 W20G26    30.17S HAZE    WCI   9

$$
INZ028>050-080800-
CENTRAL INDIANA

CITY           SKY/WX    TMP DP  RH WIND       PRES   REMARKS
LAFAYETTE      CLOUDY    24  16  71 W15G24    30.21F WCI  11
KOKOMO*        CLOUDY    25  18  74 W21       30.18S WCI  11
MUNCIE*        MOCLDY    26  18  71 NW14      30.16S WCI  14
INDIANAPOLIS   CLOUDY    27  18  69 W14       30.20S WCI  16

$$
MIZ043>046-050>051-056>058-064>065-071>073-077>080-080800-
SOUTHWEST LOWER MICHIGAN

CITY           SKY/WX    TMP DP  RH WIND       PRES   REMARKS
BATTLE CREEK   CLOUDY    27  19  72 W15G25    30.05R WCI  15
BENTON HARBOR  CLOUDY    27  18  69 W18G24    30.11S WCI  14
COLDWATER*     CLOUDY    27  19  72 W18       30.06S WCI  14
HILLSDALE*     CLOUDY    27  19  74 W18G25    30.02S WCI  13
HOLLAND        CLOUDY    28  20  71 W16G25    30.06S WCI  16
GRAND RAPIDS   CLOUDY    27  19  72 W16G26    30.03S WCI  15
KALAMAZOO      CLOUDY    27  18  69 W18       30.06S WCI  14
STURGIS*       CLOUDY    25  19  75 W13G23    30.07S WCI  14
THREE RIVERS*  CLOUDY    26  19  75 W13       30.09S WCI  15

$$
OHZ001>008-015>018-024>025-080800-
NORTHWEST OHIO

CITY           SKY/WX    TMP DP  RH WIND       PRES   REMARKS
WAUSEON*       CLOUDY    28  19  69 W16       30.07F WCI  17
DEFIANCE       CLOUDY    29  18  63 W10       30.10F WCI  20
FINDLAY        PTCLDY    28  19  69 W18G25    30.09S WCI  15
TOLEDO EXPRESS CLOUDY    27  19  72 W16G24    30.07F WCI  15
TOLEDO METCALF CLOUDY    29  20  69 W20       30.08S WCI  16
LIMA           MOCLDY    27  21  78 W18       30.10S WCI  14

$$
AND FOR LAKE MICHIGAN COASTAL AND OPEN LAKE BUOY OBSERVATIONS

STATION/POSITION TEMP    WIND        PRES    VSBY  WAVE
                 AIR SEA DIR/SP/G                  HT/PER
                 (F)     (DEG/KT/KT) (MB)    (MI)  (FT/S)
CALUMET HARBOR           250/ 10/ 16 1020.5F
MICHIGAN CITY     26     230/ 29/ 31   N/A

$$
&&



USA.gov is the U.S. government's official web portal to all federal, state and local government web resources and services.